Indianapolis Mount Comfort, IN

6:57 AM EDT on June 26, 2017 (GMT -0400)
Mount Comfort

Weather History for KMQJ - December, 2013

Change the Weather History Date:

Tuesday, December 17, 2013

  Actual Average (KEYE) Record (KEYE)
Temperature  
Mean Temperature 24 °F -  
Max Temperature 28 °F 35 °F 61 °F (2006)
Min Temperature 21 °F 22 °F 3 °F (2000)
Degree Days  
Heating Degree Days 40    
Moisture  
Dew Point 25 °F    
Average Humidity 99    
Maximum Humidity 100    
Minimum Humidity 80    
Precipitation  
Precipitation 0.00 in - - ()
Sea Level Pressure  
Sea Level Pressure 30.07 in    
Wind  
Wind Speed 10 mph (West)    
Max Wind Speed 16 mph    
Max Gust Speed 22 mph    
Visibility 5 miles    
Events      
Averages and records for this station are not official NWS values.
T = Trace of Precipitation, MM = Missing Value Source: NWS Daily Summary

Daily Weather History Graph

Daily Weather History Graph

Search for Another Location

Airport or City:

Trip Planner

Search our weather history database for the weather conditions in past years. The results will help you decide how hot, cold, wet, or windy it might be!

Date:

Astronomy

Dec. 17, 2013 Rise Set
Actual Time 7:59 AM EST 5:20 PM EST
Civil Twilight 7:28 AM EST 5:50 PM EST
Nautical Twilight 6:54 AM EST 6:24 PM EST
Astronomical Twilight 6:21 AM EST 6:57 PM EST
Moon 5:59 PM EST (12/17) 7:55 AM EST (12/17)
Length of Visible Light 10h 22m
Length of Day
9h 21m
Full, 100% of the Moon is Illuminated
Dec 17
Full
Dec 25
Last Quarter
Jan 1
New
Jan 7
First Quarter
Jan 15
Full

Hourly Weather History & Observations

Time (EST) Temp. Windchill Dew Point Humidity Pressure Visibility Wind Dir Wind Speed Gust Speed Precip Events Conditions
12:14 AM 28.4 °F 22.2 °F - N/A% 30.00 in 1.8 mi WNW 5.8 mph - N/A   Overcast
12:54 AM 28.4 °F 18.0 °F - N/A% 30.01 in 2.0 mi WNW 12.7 mph 19.6 mph N/A   Overcast
1:14 AM 28.4 °F 17.5 °F - N/A% 30.01 in 2.5 mi NW 13.8 mph 18.4 mph N/A   Overcast
1:35 AM 26.6 °F 14.7 °F - N/A% 30.02 in 4.0 mi NW 15.0 mph 21.9 mph N/A   Overcast
1:54 AM 26.6 °F 15.2 °F - N/A% 30.03 in 7.0 mi NW 13.8 mph 19.6 mph N/A   Overcast
2:14 AM 26.6 °F 16.8 °F 26.6 °F 100% 30.02 in 7.0 mi NW 10.4 mph - N/A   Overcast
2:34 AM 26.6 °F 16.8 °F 26.6 °F 100% 30.03 in 7.0 mi NW 10.4 mph - N/A   Overcast
2:54 AM 24.8 °F 14.6 °F 24.8 °F 100% 30.02 in 5.0 mi NW 10.4 mph - N/A   Overcast
3:15 AM 24.8 °F 16.9 °F 24.8 °F 100% 30.03 in 5.0 mi NNW 6.9 mph - N/A   Overcast
3:34 AM 24.8 °F 14.0 °F 24.8 °F 100% 30.04 in 5.0 mi WNW 11.5 mph - N/A   Overcast
3:54 AM 24.8 °F 19.1 °F 24.8 °F 100% 30.04 in 5.0 mi West 4.6 mph - N/A   Overcast
4:14 AM 24.8 °F 17.9 °F 24.8 °F 100% 30.03 in 5.0 mi NW 5.8 mph - N/A   Overcast
4:34 AM 24.8 °F 15.3 °F 24.8 °F 100% 30.05 in 7.0 mi WNW 9.2 mph - N/A   Overcast
4:55 AM 24.8 °F 16.1 °F 24.8 °F 100% 30.04 in 7.0 mi West 8.1 mph - N/A   Overcast
5:14 AM 24.8 °F 16.1 °F 24.8 °F 100% 30.04 in 7.0 mi West 8.1 mph - N/A   Overcast
5:34 AM 24.8 °F 14.0 °F - N/A% 30.06 in 5.0 mi WNW 11.5 mph - N/A   Overcast
5:54 AM 24.8 °F 14.0 °F - N/A% 30.07 in 5.0 mi West 11.5 mph - N/A   Overcast
6:14 AM 23.0 °F 13.1 °F 23.0 °F 100% 30.06 in 7.0 mi WNW 9.2 mph - N/A   Overcast
6:35 AM 23.0 °F 14.7 °F 23.0 °F 100% 30.05 in 7.0 mi WNW 6.9 mph - N/A   Overcast
6:54 AM 23.0 °F 11.1 °F 23.0 °F 100% 30.06 in 7.0 mi WNW 12.7 mph - N/A   Overcast
7:14 AM 23.0 °F 13.9 °F 23.0 °F 100% 30.04 in 7.0 mi WNW 8.1 mph - N/A   Overcast
7:34 AM 23.0 °F 14.7 °F 23.0 °F 100% 30.05 in 7.0 mi West 6.9 mph - N/A   Overcast
7:54 AM 23.0 °F 15.8 °F 23.0 °F 100% 30.05 in 7.0 mi WSW 5.8 mph - N/A   Overcast
8:15 AM 23.0 °F 13.9 °F 23.0 °F 100% 30.07 in 5.0 mi WNW 8.1 mph - N/A   Overcast
8:34 AM 23.0 °F 13.1 °F 23.0 °F 100% 30.08 in 4.0 mi WNW 9.2 mph - N/A   Overcast
8:54 AM 23.0 °F 10.1 °F 23.0 °F 100% 30.09 in 4.0 mi West 15.0 mph - N/A   Overcast
9:15 AM 23.0 °F 11.1 °F 23.0 °F 100% 30.10 in 4.0 mi West 12.7 mph - N/A   Overcast
9:34 AM 23.0 °F 13.1 °F 23.0 °F 100% 30.10 in 4.0 mi West 9.2 mph - N/A   Overcast
9:55 AM 23.0 °F 12.4 °F 23.0 °F 100% 30.09 in 4.0 mi West 10.4 mph - N/A   Overcast
10:14 AM 21.2 °F 10.9 °F 21.2 °F 100% 30.09 in 4.0 mi West 9.2 mph - N/A   Overcast
10:34 AM 23.0 °F 13.9 °F 23.0 °F 100% 30.09 in 5.0 mi West 8.1 mph - N/A   Overcast
10:54 AM 23.0 °F 11.7 °F 23.0 °F 100% 30.09 in 5.0 mi WSW 11.5 mph - N/A   Overcast
11:14 AM 23.0 °F 13.1 °F 23.0 °F 100% 30.08 in 3.0 mi West 9.2 mph - N/A   Overcast
11:34 AM 24.8 °F 14.6 °F 24.8 °F 100% 30.07 in 3.0 mi West 10.4 mph - N/A   Overcast
11:54 AM 24.8 °F 15.3 °F 24.8 °F 100% 30.07 in 4.0 mi SW 9.2 mph - N/A   Overcast
12:14 PM 24.8 °F 16.1 °F 24.8 °F 100% 30.04 in 5.0 mi SW 8.1 mph - N/A   Overcast
12:35 PM 24.8 °F 15.3 °F 24.8 °F 100% 30.03 in 4.0 mi SW 9.2 mph - N/A   Overcast
12:54 PM 24.8 °F 16.1 °F 24.8 °F 100% 30.04 in 4.0 mi WSW 8.1 mph - N/A   Overcast
1:14 PM 24.8 °F 14.6 °F 24.8 °F 100% 30.04 in 5.0 mi WSW 10.4 mph - N/A   Mostly Cloudy
1:35 PM 24.8 °F 14.6 °F 24.8 °F 100% 30.03 in 5.0 mi WSW 10.4 mph - N/A   Scattered Clouds
1:54 PM 26.6 °F 17.5 °F 26.6 °F 100% 30.03 in 7.0 mi WSW 9.2 mph - N/A   Clear
2:14 PM 26.6 °F 19.1 °F 23.0 °F 86% 30.01 in 5.0 mi SW 6.9 mph - N/A   Clear
2:34 PM 26.6 °F 17.5 °F 23.0 °F 86% 30.02 in 5.0 mi SW 9.2 mph - N/A   Clear
2:54 PM 28.4 °F 18.0 °F 23.0 °F 80% 30.02 in 5.0 mi WSW 12.7 mph - N/A   Clear
3:15 PM 28.4 °F 18.5 °F 23.0 °F 80% 30.03 in 4.0 mi West 11.5 mph - N/A   Mostly Cloudy
3:34 PM 28.4 °F 19.1 °F 24.8 °F 86% 30.03 in 4.0 mi WSW 10.4 mph - N/A   Mostly Cloudy
3:54 PM 26.6 °F 14.7 °F 26.6 °F 100% 30.03 in 1.5 mi West 15.0 mph - N/A   Overcast
4:14 PM 26.6 °F 15.7 °F 26.6 °F 100% 30.04 in 2.5 mi WSW 12.7 mph - N/A   Overcast
4:34 PM 26.6 °F 15.7 °F 26.6 °F 100% 30.04 in 5.0 mi WSW 12.7 mph - N/A   Overcast
4:55 PM 26.6 °F 15.7 °F 26.6 °F 100% 30.05 in 5.0 mi West 12.7 mph - N/A   Overcast
5:14 PM 28.4 °F 17.0 °F 28.4 °F 100% 30.06 in 5.0 mi West 15.0 mph - N/A   Overcast
5:34 PM 28.4 °F 18.0 °F 28.4 °F 100% 30.06 in 7.0 mi West 12.7 mph - N/A   Overcast
5:54 PM 28.4 °F 17.0 °F 28.4 °F 100% 30.07 in 7.0 mi West 15.0 mph - N/A   Overcast
6:14 PM 28.4 °F 18.0 °F 28.4 °F 100% 30.07 in 7.0 mi West 12.7 mph - N/A   Overcast
6:34 PM 28.4 °F 16.6 °F 28.4 °F 100% 30.08 in 7.0 mi West 16.1 mph - N/A   Overcast
6:54 PM 28.4 °F 18.5 °F 28.4 °F 100% 30.09 in 7.0 mi WSW 11.5 mph - N/A   Overcast
7:14 PM 28.4 °F 18.5 °F 28.4 °F 100% 30.09 in 7.0 mi WSW 11.5 mph - N/A   Overcast
7:34 PM 28.4 °F 19.7 °F 28.4 °F 100% 30.10 in 7.0 mi WSW 9.2 mph - N/A   Overcast
7:54 PM 28.4 °F 18.0 °F 28.4 °F 100% 30.10 in 7.0 mi West 12.7 mph - N/A   Overcast
8:14 PM 26.6 °F 16.2 °F 26.6 °F 100% 30.11 in 7.0 mi West 11.5 mph - N/A   Scattered Clouds
8:34 PM 26.6 °F 16.8 °F 26.6 °F 100% 30.12 in 7.0 mi WSW 10.4 mph - N/A   Scattered Clouds
8:54 PM 26.6 °F 17.5 °F 26.6 °F 100% 30.12 in 7.0 mi SW 9.2 mph - N/A   Scattered Clouds
9:15 PM 24.8 °F 16.1 °F 24.8 °F 100% 30.12 in 7.0 mi WSW 8.1 mph - N/A   Clear
9:34 PM 24.8 °F 16.1 °F 24.8 °F 100% 30.13 in 5.0 mi WSW 8.1 mph - N/A   Scattered Clouds
9:54 PM 26.6 °F 17.5 °F 26.6 °F 100% 30.13 in 7.0 mi WSW 9.2 mph - N/A   Mostly Cloudy
10:14 PM 26.6 °F 16.8 °F 26.6 °F 100% 30.13 in 7.0 mi WSW 10.4 mph - N/A   Scattered Clouds
10:34 PM 24.8 °F 14.6 °F 24.8 °F 100% 30.13 in 7.0 mi WSW 10.4 mph - N/A   Clear
10:54 PM 24.8 °F 14.6 °F 24.8 °F 100% 30.14 in 7.0 mi WSW 10.4 mph - N/A   Clear
11:14 PM 24.8 °F 16.9 °F 24.8 °F 100% 30.14 in 7.0 mi SW 6.9 mph - N/A   Clear
11:34 PM 23.0 °F 13.9 °F 23.0 °F 100% 30.14 in 5.0 mi WSW 8.1 mph - N/A   Clear
11:55 PM 21.2 °F 12.6 °F 21.2 °F 100% 30.14 in 5.0 mi WSW 6.9 mph - N/A   Clear